Погода в Николаевке

Россия / Ульяновская область     53°07′44″N   47°12′28″E
темп.,
°C
ветер,
м/с
пор.,
м/с
влажн.,
%
обл.,
%
осадки,
мм/ч
давл.,
гПа
погр.,
м
11 мая, вт
вт1101:00+15всв51363100 0.0 1017288
04:00+15всв5136194 0.0 1018321
07:00+15в5126348 0.0 1020541
10:00+17ююв577289 0.0 1022917
13:00+17ююв576999 0.0 10241157
16:00+12ююз458597 0.2 1026242
19:00+13ююз1178100 0.0 1026194
22:00+12св118472 0.0 102710
12 мая, ср
ср1201:00+12ссв2282100 0.0 102625
04:00+12св2987100 0.0 1025252
07:00+13в31186100 0.1 1025399
10:00+14в6148145 0.1 1025565
13:00+16в7156982 0.2 1025737
16:00+14в51284100 0.3 1025477
19:00+17вюв5117190 0.0 1024536
22:00+15вюв5117681 0.0 1024337
13 мая, чт
чт1301:00+12в338310 0.0 102430
04:00+13всв31068100 0.0 1024234
07:00+13в41467100 0.0 1023357
10:00+12всв3888100 2.2 1023214
13:00+20вюв71259100 0.1 1022831
16:00+23юв8135185 0.1 10211450
19:00+19юв51256100 0.0 1021313
22:00+15ююв2276100 0.4 102116
14 мая, пт
пт1401:00+13в228430 1.3 102122
04:00+12вюв33775 1.3 102123
07:00+14вюв27748 0.0 1022185
10:00+21ююв585567 0.0 1022492
13:00+25ююв7103898 0.0 10211022
16:00+26ююв610437 0.0 10211506
19:00+22ююв41057100 0.0 1021250
22:00+17юв38644 0.0 1021113
15 мая, сб
сб1501:00+15юв33615 0.0 102129
04:00+14юв22615 0.0 102117
07:00+16юв36642 0.0 1021143
10:00+23ююв59425 0.0 1020526
13:00+26ю710327 0.0 10201199
16:00+27ю59356 0.0 10182009
19:00+23юв37525 0.0 1018128
22:00+18юв33587 0.0 101734